Location: Santa Giusta
(39.8800°N, 8.6069°E)
Time: 18:16:05
(UTC+00:00)

Cosmos 1825 - Pass Details

Date: 02 February 2023
Orbit: 480 x 487 km, 82.5° (Epoch: 31 March)

Event Time Altitude Azimuth Distance (km) Brightness Sun altitude
Rises 18:27:33 0° 205° (SSW) 2,566 6.2 -19.8°
Reaches altitude 10° 18:29:46 10° 215° (SW) 1,691 5.3 -20.2°
Maximum altitude 18:33:11 34° 282° (WNW) 831 3.8 -20.8°
Drops below altitude 10° 18:36:38 10° 349° (N) 1,711 4.9 -21.5°
Sets 18:38:54 0° 359° (N) 2,600 5.7 -21.9°
